Location: *
(51.2167°N, 10.0667°E)
Time: 20:21:03
(UTC+00:00)

Cosmos 921 Rocket - Pass Details

Date: 12 December 2019
Orbit: 572 x 632 km, 75.8° (Epoch: 18 January)

Event Time Altitude Azimuth Distance (km) Brightness Sun altitude
Rises 16:52:29 0° 339° (NNW) 2,819 6.5 -14.7°
Reaches altitude 10° 16:54:41 10° 340° (NNW) 1,923 5.6 -15.0°
Maximum altitude 16:58:58 79° 68° (ENE) 612 2.9 -15.6°
Drops below altitude 10° 17:03:18 10° 156° (SSE) 1,944 5.5 -16.3°
Sets 17:05:33 0° 157° (SSE) 2,853 6.4 -16.6°
